Wetbulb
58.48 58.94 59.12 59.27 59.07 59.08 59.07 59.13 59.39 59.59 59.91 60.21 60.25 60.12 60.16 60.26 59.76 56.65 50.42 57.39 58.55 65.02 64.09 54.64 53.67 53.01 52.23 50.07 50.14 48.40 42.61 38.79 41.19 48.14 48.50 53.71 52.09 56.49 62.76 60.78 61.69 61.68 59.38 63.31 67.65
58.33 58.69 58.84 59.07 58.97 58.72 58.61 58.86 59.11 59.30 59.62 59.95 59.89 59.69 59.71 59.81 55.78 53.31 60.80 65.35 65.95 66.50 54.16 52.23 51.47 54.18 50.74 49.01 49.61 45.71 41.04 42.04 47.26 47.18 49.60 48.49 51.16 53.29 59.20 59.58 58.81 60.99 64.19 66.85 68.91
58.11 58.51 58.78 58.81 58.85 58.31 58.36 58.51 59.00 59.28 59.59 59.59 59.35 59.35 59.53 58.98 51.54 53.02 67.19 66.79 67.17 66.18 56.03 55.89 54.72 53.65 48.82 47.91 47.94 44.70 43.04 46.79 46.91 50.17 50.03 49.00 49.70 50.33 52.84 51.63 59.32 59.61 60.63 62.77 66.00
58.03 58.54 58.71 58.62 58.46 58.22 58.31 58.56 58.98 59.57 59.44 58.90 58.93 59.44 59.99 57.18 43.80 52.98 67.65 68.22 68.59 60.22 55.12 53.74 52.02 48.40 44.81 45.41 46.39 43.04 47.21 47.75 46.91 48.96 49.56 49.29 50.44 49.54 51.43 54.08 59.71 60.23 60.86 63.21 62.34
57.73 58.14 58.25 58.09 58.01 58.08 57.95 58.27 58.59 58.65 58.51 58.34 59.04 59.88 56.88 49.17 50.74 56.84 70.03 69.14 63.73 56.50 53.05 52.18 50.22 48.19 44.70 46.68 45.76 44.78 47.16 47.51 48.27 49.59 49.12 50.82 49.23 49.43 50.60 59.38 60.86 60.83 60.37 60.36 62.19
57.26 57.41 57.48 57.57 57.70 57.67 57.65 57.40 57.25 57.24 57.79 58.55 59.66 60.31 55.11 45.87 55.42 56.65 58.84 55.25 55.73 54.65 53.08 52.07 50.74 50.30 46.15 45.90 45.06 47.21 47.28 46.69 46.50 47.26 49.21 49.28 48.55 50.42 51.02 59.55 59.14 59.14 58.75 59.35 60.53
57.04 56.91 57.02 57.19 57.22 57.39 57.31 56.99 56.53 56.88 58.34 59.45 60.94 59.99 52.32 48.29 55.15 54.47 53.75 52.91 53.43 54.18 52.72 52.38 51.57 50.10 47.73 47.15 48.37 46.94 43.36 45.22 45.35 47.19 46.85 50.55 47.39 48.04 52.64 58.74 57.49 58.02 58.50 59.23 60.40
56.97 56.62 56.75 57.04 57.29 57.39 57.50 57.24 56.87 57.66 59.30 60.53 61.33 55.25 48.39 56.71 55.82 54.46 53.68 54.97 55.39 55.75 54.40 54.11 52.64 49.29 46.79 47.92 47.97 46.24 43.34 39.73 44.10 47.25 47.21 49.07 42.51 49.42 53.17 56.79 56.08 57.38 57.90 58.62 59.13
56.70 56.26 56.35 56.72 57.04 57.15 56.93 56.44 57.45 59.15 60.25 60.46 54.39 51.38 49.71 59.68 54.49 56.32 54.09 54.29 55.14 55.87 55.17 57.26 52.05 48.25 49.79 44.06 41.58 43.20 39.41 40.90 44.65 46.66 47.78 46.88 44.28 50.11 52.99 56.36 55.40 55.98 56.62 57.80 58.07
56.31 55.83 55.83 56.10 56.68 56.39 55.65 55.97 57.46 57.66 58.85 60.33 56.63 48.81 51.91 52.66 55.65 56.27 55.74 56.21 54.72 54.15 53.58 52.18 48.86 46.13 44.88 42.15 37.69 39.68 40.40 42.64 43.97 46.40 45.52 45.05 45.42 49.33 51.74 54.52 54.15 55.06 55.98 56.63 57.19
56.13 55.58 55.48 55.86 56.15 55.41 52.91 54.15 49.84 48.45 50.27 49.41 50.88 51.67 54.33 56.51 56.39 54.60 56.64 55.52 55.25 51.85 46.64 48.90 45.22 41.88 44.58 45.09 45.81 45.59 43.77 43.28 46.07 48.16 45.99 45.62 46.91 48.81 50.80 51.23 51.71 53.04 54.19 55.17 56.55
55.24 55.52 55.67 55.82 55.67 55.29 52.04 51.63 55.47 53.69 49.00 53.76 52.21 53.13 55.49 55.72 52.51 54.46 56.87 53.46 52.63 47.02 48.23 45.73 42.48 47.54 49.47 49.23 46.39 44.65 42.27 41.68 45.34 47.96 45.50 44.94 46.16 48.59 48.43 48.58 51.89 52.23 52.89 53.83 54.03
54.83 54.95 55.56 55.59 55.10 52.89 52.25 56.20 59.06 55.46 47.86 52.94 54.25 52.23 52.69 53.28 52.50 53.27 55.07 53.13 50.60 47.89 46.26 43.70 46.67 51.11 49.76 47.57 46.38 42.80 41.61 41.42 41.92 44.52 44.72 42.34 40.31 45.77 49.05 50.38 51.15 52.35 53.20 52.78 53.06
54.67 54.51 54.98 54.88 53.69 53.83 54.89 58.97 58.21 55.83 43.86 49.51 51.38 52.57 53.44 52.68 52.51 56.27 56.41 53.83 51.45 47.63 47.62 46.12 48.87 49.44 47.30 46.83 46.24 41.12 46.29 45.71 43.95 39.98 35.25 41.79 32.72 37.84 45.57 46.91 49.22 49.22 49.15 49.84 50.63
54.44 54.42 54.28 54.39 51.13 51.50 57.71 55.14 55.46 55.14 37.55 53.03 49.82 54.77 53.58 51.52 52.76 54.75 58.40 55.33 49.68 49.26 47.92 45.64 46.85 46.57 45.86 46.89 48.34 44.61 47.22 44.45 44.01 38.90 35.45 37.85 34.30 37.36 44.87 43.29 44.82 45.81 48.73 48.99 49.98
54.33 54.26 53.55 54.24 51.81 53.90 56.33 54.98 54.44 43.39 37.60 47.92 51.68 50.47 48.92 50.57 53.08 54.23 54.39 55.86 54.72 50.43 50.28 48.19 50.83 49.09 47.68 50.25 48.19 48.16 44.09 41.46 39.43 36.27 31.82 36.89 36.39 37.27 40.47 43.05 44.91 48.17 49.74 50.39 48.47
54.07 53.63 52.05 55.85 52.65 55.99 56.18 52.84 42.38 37.56 49.93 47.91 48.00 49.71 48.38 48.59 51.10 51.81 50.51 48.86 45.88 42.74 42.60 47.42 46.90 49.23 51.54 46.40 47.45 44.13 36.93 29.64 30.28 30.83 30.94 37.96 38.56 38.21 44.48 46.64 47.23 47.19 47.82 47.10 47.56
52.93 51.44 52.19 54.63 53.98 55.06 54.52 47.68 36.26 47.17 48.59 52.94 50.74 49.04 47.08 49.30 49.21 51.09 49.15 45.96 50.08 47.48 42.82 41.25 40.43 47.74 51.46 46.07 41.86 40.26 37.18 30.46 26.55 26.84 30.96 39.49 35.18 39.21 46.72 47.76 48.21 48.82 47.55 48.04 47.28
51.12 54.58 51.74 53.71 56.36 56.04 51.00 41.10 41.77 47.90 53.80 51.60 50.27 45.66 45.59 48.98 49.04 49.22 47.44 48.25 49.44 47.84 42.00 40.29 42.36 49.11 49.17 47.98 46.26 41.20 37.07 40.25 34.54 34.35 30.90 34.71 39.72 44.58 46.07 46.08 46.37 45.81 47.16 46.10 45.09
49.87 54.00 56.55 57.69 57.04 54.45 47.21 43.34 48.44 55.00 55.55 52.77 46.70 49.83 45.81 47.25 47.13 46.20 47.66 51.43 50.38 51.39 48.39 45.16 38.86 48.15 48.60 48.62 46.07 41.38 43.49 34.39 33.53 28.39 26.59 32.15 34.43 36.71 41.95 43.10 44.52 43.66 42.86 42.69 43.51
53.00 52.73 59.03 60.13 57.76 50.73 42.95 45.35 51.01 55.25 56.47 52.51 50.07 48.83 49.12 48.06 48.17 46.64 48.39 50.67 52.77 50.75 49.67 45.92 41.59 43.04 47.50 43.30 41.05 41.14 39.06 36.82 35.65 33.68 27.31 27.32 32.49 41.21 41.33 42.23 42.26 41.52 41.84 40.18 40.37
47.05 47.94 58.23 57.49 47.84 45.85 44.21 50.28 52.70 53.81 55.27 54.46 52.54 51.02 49.32 48.63 46.77 47.36 47.89 49.70 53.67 51.82 46.57 46.32 41.86 37.88 43.22 47.59 46.94 42.35 39.00 37.61 30.91 31.92 33.37 32.21 32.80 44.73 42.34 42.96 43.05 42.21 42.15 41.28 42.24
43.08 46.07 55.35 55.90 44.09 43.74 48.33 52.93 54.95 53.14 52.84 52.74 51.38 52.00 51.14 47.20 42.61 48.33 49.52 53.44 53.03 51.77 47.97 45.35 38.44 31.86 36.03 41.09 45.10 42.18 44.09 39.94 37.30 34.98 32.57 28.41 32.25 43.89 43.91 43.31 42.99 40.84 40.19 42.58 42.74
46.16 45.07 49.80 51.58 49.83 46.52 44.87 47.87 51.07 54.32 53.83 53.14 51.91 51.39 48.01 45.82 46.58 45.07 47.62 51.77 53.29 50.44 53.77 48.92 39.40 37.80 32.68 38.09 42.07 40.74 43.58 43.90 38.61 30.19 33.44 34.80 36.73 39.57 40.90 40.57 41.26 41.07 39.61 40.91 42.88
49.42 46.32 46.35 43.97 46.51 46.35 47.08 49.75 49.96 49.91 51.24 51.40 48.56 49.76 47.12 41.88 44.12 44.90 47.20 48.43 50.75 51.88 47.13 42.45 36.35 39.47 41.85 44.24 44.46 42.44 42.14 42.54 38.86 38.18 34.46 36.71 37.06 38.08 39.55 39.91 41.36 40.82 41.92 42.89 43.05
46.87 45.78 46.94 46.12 46.87 45.67 44.77 46.55 48.87 50.22 49.85 48.37 46.89 49.95 48.60 43.62 45.62 44.19 47.00 44.89 44.93 46.06 42.67 43.06 37.88 40.25 40.18 45.18 45.28 42.46 44.07 43.47 43.22 41.93 39.93 39.52 36.92 41.67 42.35 41.82 41.49 41.69 42.40 42.24 42.67
50.62 50.62 47.12 44.08 44.75 43.74 44.07 46.48 47.66 49.60 52.49 52.93 50.67 48.53 46.26 48.72 49.79 48.25 48.14 47.81 48.28 44.79 42.63 42.57 38.96 37.39 34.03 43.12 42.17 35.54 40.46 43.31 42.48 42.25 40.20 34.29 38.16 41.10 40.78 42.66 40.80 41.94 41.91 42.30 43.33
MSLP
1018.22 1018.13 1018.02 1017.91 1017.72 1017.56 1017.36 1017.14 1017.01 1016.81 1016.64 1016.41 1016.15 1015.78 1015.46 1015.10 1014.49 1014.53 1013.59 1011.58 1011.42 1011.25 1011.41 1011.13 1010.98 1010.96 1011.05 1011.31 1011.31 1011.59 1013.03 1013.08 1012.15 1011.18 1011.52 1011.21 1011.34 1011.83 1011.90 1012.43 1012.64 1012.57 1013.17 1015.47 1016.01
1018.14 1018.03 1017.91 1017.75 1017.56 1017.37 1017.21 1017.01 1016.82 1016.72 1016.53 1016.29 1015.90 1015.45 1015.24 1014.90 1014.35 1013.22 1011.03 1010.87 1010.89 1011.16 1011.44 1011.49 1011.40 1011.45 1011.59 1011.37 1011.44 1011.87 1013.06 1012.30 1011.34 1011.14 1011.15 1011.45 1011.16 1011.70 1011.98 1012.44 1012.60 1012.71 1014.16 1014.98 1015.36
1018.07 1017.93 1017.77 1017.61 1017.42 1017.25 1017.07 1016.76 1016.59 1016.56 1016.37 1016.10 1015.62 1015.21 1015.02 1014.86 1014.03 1011.76 1010.10 1010.37 1010.63 1011.35 1011.33 1011.38 1011.44 1011.61 1011.71 1011.34 1011.05 1011.44 1011.87 1011.38 1011.23 1010.76 1010.88 1011.13 1011.49 1011.77 1011.96 1012.87 1013.07 1013.85 1014.78 1015.25 1015.79
1018.00 1017.81 1017.68 1017.51 1017.31 1017.09 1016.83 1016.56 1016.39 1016.31 1016.24 1015.88 1015.42 1014.92 1014.63 1014.45 1013.40 1010.58 1010.11 1010.25 1010.67 1011.12 1011.23 1011.30 1011.43 1011.70 1011.68 1011.27 1010.13 1010.89 1010.40 1010.57 1010.44 1010.55 1010.81 1011.02 1011.41 1012.02 1012.39 1013.80 1013.99 1014.41 1015.02 1015.68 1016.46
1017.85 1017.72 1017.61 1017.40 1017.16 1016.91 1016.65 1016.39 1016.17 1016.05 1016.14 1015.75 1015.25 1014.78 1014.50 1013.93 1012.35 1009.88 1009.99 1010.29 1010.71 1010.85 1010.92 1011.21 1011.34 1011.49 1011.69 1010.92 1010.31 1010.07 1010.29 1010.09 1010.18 1010.47 1010.96 1011.13 1011.57 1012.19 1013.67 1014.24 1014.49 1014.79 1015.44 1016.07 1016.74
1017.77 1017.67 1017.51 1017.30 1017.05 1016.81 1016.50 1016.19 1015.90 1015.77 1015.96 1015.59 1015.11 1014.71 1014.32 1013.19 1010.47 1009.69 1009.72 1010.11 1010.11 1010.48 1010.50 1010.86 1010.69 1010.59 1010.69 1010.59 1010.01 1009.80 1009.72 1010.19 1010.27 1010.78 1011.09 1011.54 1012.15 1012.05 1014.00 1014.32 1015.27 1015.41 1016.32 1016.90 1017.27
1017.70 1017.54 1017.42 1017.24 1017.02 1016.69 1016.29 1015.86 1015.53 1015.39 1015.47 1015.26 1014.85 1014.40 1013.95 1012.12 1010.09 1009.87 1010.49 1009.97 1009.70 1009.94 1009.83 1009.74 1010.00 1010.13 1010.22 1010.18 1009.86 1009.86 1010.11 1010.50 1010.59 1010.46 1011.30 1011.44 1012.75 1012.96 1013.82 1013.75 1015.26 1016.11 1016.89 1017.33 1017.80
1017.61 1017.47 1017.31 1017.14 1016.89 1016.52 1016.08 1015.58 1015.15 1014.85 1014.88 1014.76 1014.69 1014.30 1013.06 1010.45 1009.83 1010.00 1009.79 1009.60 1009.28 1009.26 1009.21 1009.11 1009.18 1009.69 1010.21 1010.22 1010.35 1010.74 1010.91 1011.28 1010.85 1010.78 1010.98 1011.20 1013.08 1013.28 1013.74 1013.94 1015.33 1015.97 1016.79 1017.25 1017.92
1017.55 1017.36 1017.17 1017.01 1016.73 1016.30 1015.78 1015.16 1014.57 1014.32 1014.27 1014.45 1014.54 1014.03 1012.44 1010.19 1010.04 1009.39 1009.42 1009.34 1009.20 1009.09 1008.94 1008.99 1009.44 1010.25 1010.46 1011.48 1012.35 1012.55 1012.31 1011.79 1011.06 1010.80 1010.86 1011.85 1013.30 1013.46 1013.83 1014.27 1015.79 1016.37 1016.69 1017.17 1017.77
1017.47 1017.25 1017.05 1016.83 1016.53 1016.10 1015.32 1014.51 1013.82 1013.86 1013.55 1013.87 1013.75 1013.87 1011.83 1010.44 1009.54 1009.23 1009.00 1009.11 1009.35 1009.46 1009.60 1009.93 1010.66 1011.54 1012.09 1012.45 1013.50 1013.49 1013.15 1012.42 1011.87 1011.34 1011.15 1012.39 1013.17 1013.77 1014.18 1014.69 1015.98 1016.66 1017.14 1017.47 1017.85
1017.31 1017.07 1016.90 1016.67 1016.42 1016.11 1015.09 1014.23 1014.28 1014.18 1013.66 1013.06 1012.70 1012.14 1011.10 1009.78 1009.24 1009.20 1009.12 1009.30 1009.58 1009.99 1010.64 1010.96 1011.87 1012.58 1012.59 1012.68 1013.15 1013.44 1013.64 1013.57 1013.05 1012.51 1012.25 1012.93 1013.51 1013.82 1014.15 1015.01 1016.03 1016.86 1017.38 1017.77 1018.00
1017.14 1016.87 1016.67 1016.46 1016.37 1016.11 1015.88 1015.17 1013.49 1013.45 1013.02 1011.90 1011.59 1011.44 1010.59 1009.84 1009.59 1009.36 1009.28 1009.81 1010.10 1010.70 1011.00 1011.90 1012.37 1012.17 1012.22 1012.71 1013.32 1013.66 1014.03 1014.12 1013.54 1012.97 1013.17 1013.91 1014.21 1014.05 1014.76 1015.54 1015.90 1016.64 1017.54 1017.94 1018.23
1017.02 1016.67 1016.44 1016.19 1016.15 1016.05 1015.40 1014.00 1012.29 1012.90 1013.00 1011.49 1010.67 1010.36 1009.78 1009.40 1009.66 1009.50 1009.45 1009.91 1010.49 1011.08 1011.25 1012.04 1012.16 1012.03 1012.48 1013.16 1013.76 1014.33 1014.61 1014.70 1014.82 1014.33 1014.11 1014.30 1014.85 1014.99 1015.22 1015.59 1016.49 1016.87 1017.04 1017.55 1017.94
1016.90 1016.48 1016.11 1015.73 1015.98 1015.50 1014.44 1012.49 1012.07 1012.63 1013.08 1011.67 1010.10 1009.26 1009.34 1009.40 1009.87 1009.57 1009.49 1010.13 1010.82 1011.43 1011.79 1012.15 1011.96 1012.42 1012.91 1013.42 1013.90 1014.44 1014.48 1014.68 1015.01 1015.44 1015.68 1015.58 1016.65 1016.11 1016.02 1016.41 1016.85 1017.13 1017.30 1017.79 1018.11
1016.71 1016.35 1015.97 1015.60 1015.74 1015.10 1013.37 1012.69 1012.30 1012.45 1013.12 1010.59 1009.49 1008.37 1008.85 1009.72 1009.95 1009.86 1009.48 1010.11 1010.97 1011.63 1012.12 1012.63 1012.30 1012.49 1013.00 1013.54 1013.78 1014.41 1014.58 1015.07 1015.46 1016.15 1016.66 1016.76 1017.20 1017.45 1017.40 1017.46 1017.64 1017.83 1017.92 1018.03 1018.03
1016.33 1016.04 1015.87 1015.67 1015.66 1013.89 1012.92 1012.54 1012.74 1013.90 1012.41 1010.51 1009.28 1008.93 1009.71 1009.82 1010.14 1010.12 1010.05 1010.23 1010.88 1011.73 1012.34 1012.56 1012.14 1012.56 1013.02 1013.47 1013.89 1014.59 1015.34 1015.95 1016.75 1017.41 1018.40 1018.06 1018.04 1018.82 1018.30 1018.10 1017.95 1018.03 1018.21 1018.48 1018.64
1015.85 1015.62 1015.48 1014.82 1014.24 1013.13 1013.06 1013.57 1014.44 1014.08 1011.89 1010.84 1009.94 1009.76 1010.00 1010.30 1010.65 1010.61 1010.84 1011.37 1012.19 1013.05 1013.70 1013.48 1013.40 1013.20 1013.17 1013.83 1014.29 1015.36 1017.09 1018.28 1019.12 1019.70 1019.72 1018.70 1018.64 1019.07 1018.40 1017.93 1017.88 1018.21 1018.45 1018.98 1018.94
1015.32 1015.08 1014.68 1013.91 1013.25 1013.67 1014.05 1014.96 1014.82 1013.32 1011.82 1010.51 1009.98 1010.07 1010.48 1010.34 1010.84 1011.14 1011.62 1012.39 1012.75 1013.51 1014.33 1014.66 1014.37 1013.81 1013.72 1014.39 1015.20 1016.22 1017.80 1019.48 1020.78 1021.57 1020.78 1019.39 1019.47 1018.96 1018.24 1017.91 1017.82 1018.23 1018.81 1019.15 1019.21
1015.00 1014.78 1014.55 1013.05 1013.06 1013.87 1014.98 1015.81 1014.63 1012.94 1011.65 1010.83 1010.25 1010.67 1010.87 1010.55 1010.88 1011.58 1012.38 1013.29 1013.78 1013.87 1014.71 1015.26 1015.15 1014.59 1014.32 1014.45 1015.28 1016.61 1017.94 1018.89 1020.51 1021.71 1021.69 1020.73 1019.79 1018.83 1018.47 1018.35 1018.43 1018.89 1019.25 1019.57 1019.59
1016.24 1015.39 1014.16 1012.20 1012.91 1014.41 1015.72 1015.58 1014.04 1012.48 1011.38 1010.92 1011.20 1011.34 1011.69 1011.36 1011.58 1012.23 1013.33 1014.00 1014.23 1014.47 1014.76 1015.94 1016.10 1015.57 1015.18 1015.08 1015.60 1016.31 1017.60 1019.29 1021.06 1022.46 1022.69 1021.61 1020.49 1019.62 1019.07 1018.86 1019.35 1019.63 1019.86 1019.97 1020.09
1016.58 1015.70 1012.84 1012.23 1013.20 1014.94 1015.94 1015.18 1013.50 1011.93 1011.12 1011.08 1011.43 1011.93 1012.37 1012.46 1012.66 1013.22 1014.25 1014.74 1014.58 1015.15 1015.49 1016.42 1017.17 1017.04 1016.31 1016.14 1016.28 1016.86 1017.89 1019.65 1021.15 1022.45 1022.94 1022.73 1020.84 1019.53 1019.11 1019.28 1019.75 1020.24 1020.53 1020.60 1020.78
1018.20 1016.63 1013.22 1012.53 1014.47 1015.35 1015.50 1014.25 1012.75 1011.99 1011.04 1011.03 1011.42 1012.26 1012.92 1013.14 1013.60 1014.15 1014.71 1014.96 1015.10 1015.51 1016.71 1017.57 1018.28 1018.49 1017.71 1016.64 1016.43 1016.78 1017.81 1019.34 1021.46 1022.50 1022.87 1022.58 1021.00 1019.50 1019.70 1019.75 1020.08 1020.63 1020.50 1020.50 1020.59
1019.90 1017.56 1013.64 1013.61 1015.35 1015.81 1014.97 1013.81 1012.79 1011.60 1011.39 1011.40 1011.95 1012.33 1012.98 1013.66 1014.18 1014.57 1015.21 1015.31 1015.45 1016.26 1017.09 1017.97 1019.34 1019.68 1018.71 1018.00 1017.28 1017.50 1017.82 1018.68 1020.31 1021.58 1022.25 1022.71 1021.43 1020.27 1020.17 1020.15 1020.37 1020.47 1020.68 1021.03 1020.83
1020.34 1018.93 1016.33 1015.52 1015.81 1015.87 1015.35 1014.11 1013.00 1011.73 1011.51 1011.70 1012.26 1012.57 1013.19 1013.82 1014.24 1014.96 1015.56 1015.87 1016.29 1016.94 1017.52 1018.23 1019.71 1020.26 1020.29 1019.43 1018.91 1018.46 1018.23 1018.52 1019.73 1021.25 1021.40 1021.33 1020.52 1020.41 1020.36 1020.56 1020.54 1020.76 1020.99 1020.89 1020.64
1020.50 1019.96 1019.10 1018.51 1017.04 1016.78 1015.83 1014.64 1013.46 1012.57 1012.08 1012.04 1012.41 1012.85 1013.37 1014.11 1014.45 1015.03 1015.96 1016.66 1017.20 1017.73 1018.29 1019.16 1020.34 1020.44 1020.06 1019.48 1018.97 1018.50 1018.20 1018.16 1018.85 1019.16 1020.26 1020.10 1020.35 1020.48 1020.46 1020.63 1020.81 1021.00 1020.85 1020.81 1020.89
1020.85 1020.68 1020.10 1019.43 1018.32 1017.35 1016.09 1015.24 1014.44 1013.57 1013.03 1012.69 1012.88 1012.92 1013.46 1014.21 1014.44 1015.22 1016.00 1016.94 1017.59 1018.34 1018.90 1019.73 1020.46 1020.64 1020.46 1019.39 1018.88 1018.30 1017.71 1017.61 1017.69 1018.17 1019.01 1019.63 1020.21 1020.28 1020.54 1020.76 1020.98 1020.93 1020.88 1020.86 1020.97
1021.55 1020.93 1020.72 1020.06 1019.12 1018.14 1017.44 1016.61 1015.32 1014.55 1013.26 1012.72 1012.51 1013.19 1013.81 1014.07 1014.39 1014.93 1015.43 1016.30 1017.08 1018.12 1019.35 1020.28 1021.06 1021.62 1021.29 1020.08 1019.31 1018.26 1017.13 1016.92 1017.40 1017.89 1018.32 1019.32 1019.86 1020.30 1020.42 1020.26 1020.49 1020.67 1020.83 1021.05 1021.20
Wind_Speed
6 6 6 6 6 7 8 8 9 9 8 9 10 11 11 11 11 3 5 11 6 4 2 6 4 4 4 4 2 4 5 5 6 9 3 4 4 7 8 8 5 5 6 22 15
6 6 6 6 7 8 8 9 9 8 9 10 10 11 10 10 2 6 12 9 9 5 1 3 5 7 5 5 4 6 3 5 4 1 12 5 11 7 7 3 5 4 20 18 15
6 6 6 7 8 8 9 10 10 9 9 10 11 12 9 6 4 7 5 12 8 6 1 2 3 2 4 3 5 4 7 5 1 12 9 9 11 2 12 5 3 9 17 11 11
5 6 7 7 8 9 10 10 10 9 8 10 11 13 11 2 1 5 8 9 5 6 0 2 3 4 4 6 3 2 6 6 4 7 6 8 6 7 15 14 18 24 20 17 12
6 6 7 8 9 10 11 11 11 10 7 9 11 11 0 4 9 9 8 7 5 4 4 0 4 3 4 6 3 5 6 5 8 12 8 8 7 9 18 21 21 22 21 18 16
6 7 8 9 9 10 11 11 11 10 5 7 11 9 1 4 6 7 9 4 6 3 3 6 6 9 3 4 3 2 5 5 4 9 6 13 3 7 10 24 21 23 19 18 18
7 8 8 9 10 11 11 12 12 11 7 8 9 3 2 13 4 3 4 5 4 6 3 3 3 5 3 7 2 1 3 4 2 7 7 12 5 5 10 21 21 21 18 18 18
8 8 9 9 10 11 12 13 14 13 9 4 3 1 7 7 6 6 3 5 5 8 2 5 4 3 2 4 10 6 5 4 5 4 3 9 3 3 10 21 16 18 17 17 15
9 9 9 9 9 11 13 15 16 12 8 5 1 2 9 11 3 7 2 1 4 4 5 3 5 1 8 6 7 8 5 4 3 5 6 7 5 4 9 18 14 14 14 15 15
10 9 9 8 9 11 15 10 7 9 1 4 2 3 6 4 3 2 3 5 2 6 7 5 6 5 5 6 2 4 5 7 5 3 3 5 3 5 6 15 14 13 12 13 13
11 9 8 8 8 9 9 6 6 5 2 7 5 6 6 4 2 3 2 4 2 3 2 4 7 1 5 3 4 8 6 3 3 6 4 4 7 8 7 11 11 10 11 10 11
12 9 8 8 6 5 0 0 6 4 7 6 12 6 8 7 2 7 2 1 3 5 3 8 1 4 7 9 10 9 8 7 4 10 6 6 6 7 3 4 11 13 10 9 7
13 10 8 8 4 0 3 7 6 5 1 9 7 6 6 4 1 3 3 2 1 3 3 6 4 7 10 8 8 4 6 3 3 5 5 4 7 5 3 7 6 7 10 8 11
14 11 9 11 1 2 5 7 7 5 6 8 3 5 2 4 2 1 1 3 6 3 3 4 2 10 8 6 4 3 3 2 5 5 2 3 5 5 5 7 7 8 7 8 7
14 11 8 5 2 2 7 7 5 8 2 4 5 5 8 6 6 3 1 4 2 4 7 5 3 5 6 1 1 5 3 3 3 3 2 5 3 8 6 3 1 1 3 5 5
16 11 8 3 1 8 9 7 6 8 5 3 5 4 5 3 2 4 1 2 1 3 5 3 0 4 3 3 7 2 5 7 6 3 3 4 5 6 3 2 4 5 6 5 6
19 10 3 1 5 4 7 6 7 4 6 3 6 5 6 5 5 6 4 1 2 4 4 7 5 2 3 6 8 12 8 6 7 7 5 4 7 5 5 5 8 7 5 7 6
23 7 6 4 6 6 5 7 2 5 6 6 7 6 8 8 5 6 5 4 6 4 2 4 6 1 1 4 1 2 6 6 1 1 6 6 3 5 6 4 5 6 8 6 6
18 3 2 6 2 4 7 4 7 5 4 7 4 5 4 3 6 4 4 3 4 3 6 3 2 2 4 2 6 4 3 5 5 2 3 2 2 5 2 3 3 7 7 4 2
3 4 4 4 7 6 6 5 5 4 5 3 5 6 6 3 4 4 4 4 3 4 4 1 1 2 2 2 3 5 3 4 4 0 3 4 1 4 5 5 6 6 6 4 6
4 4 6 7 6 6 4 7 6 5 1 4 2 4 3 3 5 4 4 5 5 3 8 3 4 6 2 2 4 2 2 5 4 5 6 1 7 7 4 5 7 4 3 1 4
3 3 4 4 4 1 3 5 3 6 1 1 3 5 2 5 4 4 3 2 2 2 3 2 4 2 7 6 4 4 5 6 7 4 1 5 8 5 8 6 7 4 3 5 5
3 4 5 6 2 3 6 6 6 6 2 3 4 4 2 2 4 5 2 1 4 4 6 3 2 4 10 8 7 3 3 4 4 4 6 7 8 2 5 7 3 3 3 2 3
3 5 6 5 2 0 4 7 4 1 3 4 4 4 4 2 1 4 4 3 4 3 4 7 3 7 7 6 2 6 6 7 6 5 4 7 5 4 6 4 4 4 2 2 5
2 3 2 4 5 5 2 4 3 4 3 2 2 4 5 2 1 1 4 3 4 2 3 5 3 3 5 6 5 6 9 9 6 7 7 5 6 1 2 2 4 3 3 6 5
2 3 5 4 4 5 3 3 3 4 3 4 5 7 5 6 8 4 8 4 4 1 3 2 2 1 4 7 6 7 10 8 6 3 5 6 3 3 3 3 3 1 3 5 5
4 4 4 5 6 3 2 6 9 10 4 4 10 5 6 1 7 7 6 7 10 10 6 6 4 3 5 5 6 8 6 3 3 1 5 3 4 3 2 5 3 6 5 5 3
Wind_Direction
336 331 331 328 329 323 325 324 322 331 331 319 317 309 310 313 303 162 252 221 191 184 166 289 314 322 19 273 198 106 42 294 273 83 350 60 120 153 156 132 230 179 92 99 122
327 322 320 318 318 319 320 313 318 326 323 319 313 306 312 322 302 255 237 221 222 190 275 317 327 8 330 293 345 86 93 269 215 291 128 111 93 111 109 102 29 47 77 97 111
317 311 312 312 312 312 310 312 314 318 319 322 311 302 305 309 346 253 261 203 213 162 194 321 309 6 302 225 221 186 171 234 30 120 117 97 70 117 116 65 49 95 91 88 101
308 309 305 305 307 309 310 308 308 312 325 319 309 308 312 201 34 265 192 213 193 164 17 358 36 352 287 302 237 144 211 193 108 118 96 103 117 61 72 86 90 90 94 94 111
318 311 306 308 309 309 307 305 305 310 327 306 309 318 315 5 251 252 197 210 166 121 218 203 303 151 245 281 320 106 171 103 115 113 116 123 108 130 101 106 95 89 84 82 88
327 316 314 311 311 309 308 303 302 306 319 292 301 307 5 327 244 260 203 246 230 176 256 158 233 213 224 269 67 162 93 136 162 141 127 116 176 86 108 117 103 97 92 93 95
332 326 319 315 314 313 307 302 301 303 304 302 307 325 5 241 225 21 276 245 218 218 256 253 236 41 333 332 306 169 40 29 207 167 140 111 23 130 124 102 108 108 109 105 101
337 327 321 320 319 314 307 300 296 293 298 282 341 32 251 255 323 311 204 283 264 268 237 276 355 345 121 286 5 10 59 8 289 176 103 97 207 242 141 114 118 117 115 112 112
337 328 326 323 319 315 305 292 283 287 261 217 119 110 272 310 199 264 196 333 308 311 282 297 41 12 11 53 7 8 288 208 281 215 134 94 184 225 135 122 128 122 118 116 118
337 330 328 326 323 320 302 277 296 321 76 172 265 10 283 242 236 316 307 314 319 327 357 41 45 26 29 69 194 281 11 341 4 279 166 61 162 152 155 128 136 134 129 125 127
341 333 327 321 325 341 350 3 18 354 70 202 207 205 284 254 97 284 257 315 318 25 275 13 59 283 237 220 65 91 83 83 262 341 77 185 162 191 180 124 141 135 133 133 137
345 337 322 312 332 329 71 267 214 172 305 233 244 257 266 247 1 287 112 1 39 278 306 25 119 262 55 62 73 67 51 355 306 350 50 151 228 222 86 152 153 142 137 142 135
343 338 326 312 316 293 196 228 278 40 59 294 214 200 223 122 255 233 98 75 288 4 15 130 220 66 84 45 51 49 87 352 265 329 347 55 340 179 48 115 111 128 144 152 159
341 338 333 308 46 305 258 286 257 155 51 278 194 260 180 141 71 311 26 89 6 330 123 125 288 95 71 74 111 25 253 343 324 49 273 89 260 308 172 111 144 155 152 159 164
340 335 331 8 272 341 261 338 264 55 20 243 212 199 158 133 158 325 74 51 66 306 70 281 121 86 77 68 340 229 327 309 258 263 37 358 75 297 25 137 200 43 109 92 123
338 331 321 104 39 245 309 325 49 48 259 262 163 154 114 171 147 189 167 45 287 29 23 241 294 53 149 107 79 358 8 354 31 87 41 259 135 331 318 263 45 85 101 148 66
333 323 280 10 238 312 345 41 46 136 296 221 181 163 171 227 168 167 164 82 149 62 355 12 356 358 52 32 7 40 44 346 3 13 225 345 59 219 263 130 134 141 135 86 79
328 315 214 222 251 20 41 52 143 254 262 289 181 163 184 195 205 177 153 140 48 96 99 118 336 7 10 131 165 332 129 145 258 297 279 345 118 237 220 137 119 116 110 90 70
321 350 316 258 215 84 69 76 211 239 325 349 11 139 260 222 143 127 134 59 34 69 125 88 309 35 97 128 112 323 42 184 113 349 40 253 22 352 213 153 88 83 95 67 17
8 354 267 232 122 68 77 232 248 249 294 17 49 41 21 335 93 121 102 313 96 49 96 178 25 325 291 63 5 134 182 41 12 311 306 297 204 225 231 238 86 90 89 48 15
40 18 260 137 71 54 158 228 289 264 80 70 64 51 25 36 21 62 45 6 32 52 62 63 107 285 35 119 226 17 20 62 111 137 167 281 280 217 220 118 119 119 204 190 79
11 4 299 41 59 80 179 208 263 302 168 74 109 82 85 21 44 72 117 104 1 94 77 15 138 267 240 271 206 173 174 129 116 262 179 152 266 47 124 130 126 157 52 60 94
11 268 322 94 169 277 283 282 282 191 61 66 42 86 121 84 61 114 109 278 41 86 158 172 10 14 345 356 357 17 261 164 115 73 207 140 260 60 73 71 71 71 42 169 221
52 350 324 32 111 65 315 283 279 315 120 102 136 92 78 69 136 158 146 188 87 92 133 89 119 155 190 219 225 294 299 283 136 113 223 217 244 3 32 39 347 345 54 291 357
64 273 201 325 328 336 297 304 359 360 7 75 51 158 164 182 296 327 86 90 45 131 60 103 182 213 247 254 260 265 272 288 215 209 159 263 137 100 50 350 336 25 12 4 31
74 44 350 295 304 345 337 286 333 299 212 250 170 215 145 179 177 172 130 138 186 198 146 32 257 251 286 288 294 294 287 278 280 115 131 135 139 176 219 249 75 324 7 38 37
320 347 105 286 333 8 32 320 303 337 262 267 186 125 87 220 144 158 167 160 165 159 182 150 149 87 269 305 337 324 270 226 124 65 130 132 164 208 350 18 43 6 40 29 72